Moses Lake, WA

7:45 AM PDT on October 21, 2017 (GMT -0700)
Grant County International

Weather History for KMWH - July, 2013

Change the Weather History Date:

Monday, July 22, 2013

  Actual Average Record
Temperature  
Mean Temperature 80 °F 74 °F  
Max Temperature 98 °F 91 °F 106 °F (2006)
Min Temperature 61 °F 57 °F 48 °F (1982)
Degree Days  
Heating Degree Days 0 0  
Month to date heating degree days 0 6  
Since 1 June heating degree days 49 61  
Since 1 July heating degree days 0 6  
Cooling Degree Days 15 9  
Month to date cooling degree days 268 161  
Year to date cooling degree days 426 271  
Since 1 June cooling degree days 376 246  
Growing Degree Days 30 (Base 50)    
Moisture  
Dew Point 42 °F    
Average Humidity 35    
Maximum Humidity 60    
Minimum Humidity 10    
Precipitation  
Precipitation 0.00 in 0.01 in 0.09 in (2016)
Month to date precipitation T 0.29  
Year to date precipitation 3.75 5.06  
Sea Level Pressure  
Sea Level Pressure 29.80 in    
Wind  
Wind Speed 7 mph (SW)    
Max Wind Speed 14 mph    
Max Gust Speed 18 mph    
Visibility 10 miles    
Events      
T = Trace of Precipitation, MM = Missing Value Source: NWS Daily Summary

Daily Weather History Graph

Daily Weather History Graph

Search for Another Location

Airport or City:

Trip Planner

Search our weather history database for the weather conditions in past years. The results will help you decide how hot, cold, wet, or windy it might be!

Date:

Astronomy

Jul. 22, 2013 Rise Set
Actual Time 5:24 AM PDT 8:42 PM PDT
Civil Twilight 4:47 AM PDT 9:19 PM PDT
Nautical Twilight 3:58 AM PDT 10:07 PM PDT
Astronomical Twilight 2:56 AM PDT 11:09 PM PDT
Moon 8:24 PM PDT (7/22) 5:31 AM PDT (7/22)
Length of Visible Light 16h 32m
Length of Day
15h 17m
Full, 100% of the Moon is Illuminated
Jul 22
Full
Jul 29
Last Quarter
Aug 6
New
Aug 14
First Quarter
Aug 20
Full

Hourly Weather History & Observations

Time (PDT) Temp. Dew Point Humidity Pressure Visibility Wind Dir Wind Speed Gust Speed Precip Events Conditions
12:52 AM 73.9 °F 48.0 °F 40% 29.73 in 10.0 mi Calm Calm - N/A   Clear
1:52 AM 71.1 °F 46.0 °F 41% 29.73 in 10.0 mi WSW 6.9 mph - N/A   Clear
2:52 AM 69.1 °F 46.9 °F 45% 29.74 in 10.0 mi SW 3.5 mph - N/A   Clear
3:52 AM 69.1 °F 46.9 °F 45% 29.75 in 10.0 mi SW 8.1 mph - N/A   Clear
4:52 AM 66.9 °F 46.0 °F 47% 29.76 in 10.0 mi SW 4.6 mph - N/A   Clear
5:52 AM 63.0 °F 48.0 °F 58% 29.78 in 10.0 mi South 6.9 mph - N/A   Clear
6:52 AM 69.1 °F 46.9 °F 45% 29.80 in 10.0 mi WSW 3.5 mph - N/A   Clear
7:52 AM 75.9 °F 45.0 °F 33% 29.81 in 10.0 mi WSW 4.6 mph - N/A   Clear
8:52 AM 80.1 °F 43.0 °F 27% 29.83 in 10.0 mi SW 8.1 mph - N/A   Clear
9:52 AM 84.0 °F 43.0 °F 24% 29.83 in 10.0 mi SW 8.1 mph - N/A   Clear
10:52 AM 88.0 °F 39.9 °F 18% 29.84 in 10.0 mi West 9.2 mph - N/A   Clear
11:52 AM 89.1 °F 41.0 °F 19% 29.84 in 10.0 mi SSW 9.2 mph - N/A   Clear
12:52 PM 91.9 °F 37.0 °F 15% 29.84 in 10.0 mi SW 10.4 mph - N/A   Clear
1:52 PM 93.0 °F 39.0 °F 15% 29.84 in 10.0 mi South 8.1 mph - N/A   Clear
2:52 PM 95.0 °F 37.0 °F 13% 29.84 in 10.0 mi SSW 10.4 mph - N/A   Clear
3:52 PM 95.0 °F 37.0 °F 13% 29.82 in 10.0 mi SSW 6.9 mph - N/A   Clear
4:52 PM 97.0 °F 36.0 °F 12% 29.81 in 10.0 mi SSW 9.2 mph - N/A   Clear
5:52 PM 98.1 °F 33.1 °F 10% 29.79 in 10.0 mi SW 8.1 mph - N/A   Clear
6:52 PM 97.0 °F 36.0 °F 12% 29.79 in 10.0 mi SSW 11.5 mph - N/A   Clear
7:52 PM 93.0 °F 46.0 °F 20% 29.79 in 10.0 mi SSW 9.2 mph - N/A   Clear
8:52 PM 88.0 °F 48.0 °F 25% 29.80 in 10.0 mi SW 8.1 mph - N/A   Clear
9:52 PM 82.9 °F 39.0 °F 21% 29.82 in 10.0 mi West 5.8 mph - N/A   Clear
10:52 PM 75.9 °F 39.0 °F 26% 29.83 in 10.0 mi NNW 4.6 mph - N/A   Clear
11:52 PM 78.1 °F 43.0 °F 29% 29.85 in 10.0 mi Calm Calm - N/A   Clear